User: anonymous   Login
Location: Unspecified
(0.0000°N, 0.0000°E)
Time: 12:20:37
(UTC+02:00)
Language:

BREEZE-M DEB (TANK) - Orbit

View from above orbital plane
View from above orbital plane
View from above satellite
View from above satellite

Ground track
Ground track

The orbit data is extracted from the following two-line orbital elements,

1 33374U 08044B   15115.05427207  .00002594  00000-0  92173-3 0  9991
2 33374 049.4406 112.9271 5440775 335.0030 017.7373 04.85460553115856
Epoch (UTC): 25 April 2015 01:18:09
Eccentricity: 0.5440775
inclination: 49.4406°
perigee height: 339 km
apogee height: 16371 km
right ascension of ascending node: 112.9271°
argument of perigee: 335.0030°
revolutions per day: 4.85460553
mean anomaly at epoch: 17.7373°
orbit number at epoch: 11585

The dashed part of the orbit path shows where the satellite is in the earth's shadow,  

DLR